Location: Tabor
(49.4170°N, 14.6670°E)
Time: 00:50:02
(UTC+02:00)

ISS - Visible Passes

Search period start: 16 May 2026 00:00
Search period end: 26 May 2026 00:00
Orbit: 414 x 424 km, 51.6° (Epoch: 15 May)

Date Brightness Start Highest point End Pass type
(mag) Time Alt. Az. Time Alt. Az. Time Alt. Az.
16 May -3.5 22:36:34 10° WNW 22:39:54 67° NNE 22:42:11 19° E visible
17 May -2.1 00:13:27 10° WNW 00:15:06 24° W 00:15:06 24° W visible
17 May -3.2 21:48:52 10° WNW 21:52:11 59° N 21:55:30 10° E visible
17 May -3.7 23:25:44 10° WNW 23:29:01 58° SSW 23:29:01 58° SSW visible
18 May -3.9 22:38:02 10° WNW 22:41:23 79° SSW 22:42:58 28° ESE visible
19 May -1.2 00:15:20 10° W 00:15:54 13° W 00:15:54 13° W visible
19 May -3.7 21:50:20 10° WNW 21:53:42 81° NNE 21:56:54 11° ESE visible
19 May -2.4 23:27:21 10° W 23:29:50 27° SW 23:29:50 27° SW visible
20 May -3.1 22:39:31 10° WNW 22:42:41 40° SSW 22:43:47 29° SSE visible
21 May -3.6 21:51:45 10° WNW 21:55:03 58° SSW 21:57:46 14° SE visible
21 May -1.3 23:29:42 10° WSW 23:30:42 12° SW 23:30:42 12° SW visible
22 May -2.0 22:41:19 10° W 22:43:47 19° SW 22:44:42 17° SSW visible
23 May -2.4 21:53:18 10° W 21:56:13 28° SW 21:58:44 12° SSE visible
25 May -1.3 21:55:33 10° WSW 21:57:10 13° SW 21:58:48 10° SSW visible
